Location: Taukkyan
(23.1052°N, 94.0030°E)
Time: 11:21:49
(UTC+00:00)

Cosmos 1980 Rocket - Pass Details

Date: 06 July 2020
Orbit: 828 x 851 km, 71.0° (Epoch: 14 August)

Event Time Altitude Azimuth Distance (km) Brightness Sun altitude
Rises 22:31:44 0° 343° (NNW) 3,413 5.5 -7.5°
Reaches altitude 10° 22:34:11 10° 344° (NNW) 2,474 4.8 -7.0°
Maximum altitude 22:39:53 82° 72° (ENE) 858 2.4 -5.8°
Drops below altitude 10° 22:45:32 10° 160° (SSE) 2,454 4.6 -4.7°
Sets 22:47:57 0° 161° (SSE) 3,383 5.3 -4.2°
